Location: Powder Track
(41.8531°N, 72.3584°W)
Time: 03:20:57
(UTC+00:00)

A-11 Canister half - Visible Passes

Search period start: 26 July 2021 00:00
Search period end: 05 August 2021 00:00
Orbit: 1513 x 1687 km, 47.2° (Epoch: 25 July)

Date Brightness Start Highest point End Pass type
(mag) Time Alt. Az. Time Alt. Az. Time Alt. Az.
26 Jul 9.5 01:27:52 10° W 01:37:55 68° N 01:48:07 10° ENE visible
26 Jul 9.3 03:33:47 10° WNW 03:44:00 73° NNE 03:54:10 10° E visible
26 Jul 9.0 05:39:10 10° WNW 05:49:10 62° SW 05:53:52 35° SSE visible
26 Jul 10.1 07:46:10 10° W 07:51:47 19° WSW 07:51:47 19° WSW visible
27 Jul 9.5 01:04:53 10° W 01:14:54 69° N 01:25:06 10° ENE visible
27 Jul 9.3 03:10:49 10° WNW 03:20:59 71° NNE 03:31:11 10° E visible
27 Jul 9.0 05:16:12 10° WNW 05:26:14 65° SW 05:29:37 45° SSE visible
27 Jul 10.2 07:22:55 10° W 07:27:39 20° WSW 07:27:39 20° WSW visible
28 Jul 9.5 00:41:54 10° W 00:51:53 70° NNW 01:02:07 10° ENE visible
28 Jul 9.3 02:47:49 10° WNW 02:57:59 70° NNE 03:08:09 10° E visible
28 Jul 9.0 04:53:13 10° WNW 05:03:18 68° SW 05:06:16 49° SSE visible
28 Jul 10.2 06:59:42 10° W 07:04:20 21° WSW 07:04:20 21° WSW visible
29 Jul 9.4 02:24:50 10° WNW 02:34:58 69° N 02:45:09 10° E visible
29 Jul 9.0 04:30:14 10° WNW 04:40:21 71° SW 04:43:18 51° SSE visible
29 Jul 10.2 06:36:32 10° WNW 06:41:24 22° WSW 06:41:24 22° WSW visible
30 Jul 9.4 02:01:51 10° WNW 02:11:57 68° N 02:22:08 10° E visible
30 Jul 9.0 04:07:15 10° WNW 04:17:25 74° SSW 04:20:35 50° SE visible
30 Jul 10.1 06:13:24 10° WNW 06:18:41 24° WSW 06:18:41 24° WSW visible
31 Jul 9.4 01:38:52 10° WNW 01:48:55 67° N 01:59:06 10° E visible
31 Jul 9.0 03:44:18 10° WNW 03:54:27 77° SSW 03:58:01 47° SE visible
31 Jul 10.1 05:50:17 10° WNW 05:56:08 26° WSW 05:56:08 26° WSW visible
01 Aug 9.5 01:15:53 10° WNW 01:25:54 66° N 01:36:05 10° E visible
01 Aug 9.0 03:21:20 10° WNW 03:31:31 80° SSW 03:35:34 43° SE visible
01 Aug 10.0 05:27:11 10° WNW 05:33:42 29° WSW 05:33:42 29° WSW visible
02 Aug 9.5 00:52:54 10° WNW 01:02:53 66° N 01:13:03 10° E visible
02 Aug 9.0 02:58:22 10° WNW 03:08:33 83° SSW 03:13:14 39° SE visible
02 Aug 9.9 05:04:06 10° WNW 05:11:22 32° WSW 05:11:22 32° WSW visible
03 Aug 9.5 00:29:55 10° WNW 00:39:52 65° N 00:50:01 10° E visible
03 Aug 9.1 02:35:24 10° WNW 02:45:35 86° SSW 02:50:57 34° ESE visible
03 Aug 9.8 04:41:03 10° WNW 04:49:06 35° WSW 04:49:06 35° WSW visible
04 Aug 9.1 02:12:27 10° WNW 02:22:37 89° SSW 02:28:45 29° ESE visible
04 Aug 9.7 04:18:00 10° WNW 04:26:54 37° SW 04:26:54 37° SW visible
